GW1771 Weather Reports


Display with metric or nautical units.
time (UTC)temp
F
wind
direction
speed
MPH
gust
MPH
rain 1hr
in
rain 24hr
in
rain mn
in
humidity
%
barometer
mb
20260906182505 89 194 0.0 0.0 0.00 0.00 0.00 69 1013.1
20260906182001 89 168 0.0 0.0 0.00 0.00 0.00 69 1012.7
20260906181456 88 82 0.0 0.0 0.00 0.00 0.00 71 1013.0
20260906180952 87 80 0.0 0.0 0.00 0.00 0.00 73 1012.8
20260906180446 87 80 0.0 0.0 0.00 0.00 0.00 71 1012.7
20260906175944 87 93 0.0 0.0 0.00 0.00 0.00 73 1013.0
20260906175439 87 95 0.0 0.0 0.00 0.00 0.00 72 1012.8
20260906174937 87 102 0.0 0.0 0.00 0.00 0.00 72 1013.2
20260906174432 87 86 0.0 0.0 0.00 0.00 0.00 72 1013.0
20260906173927 86 101 0.0 0.0 0.00 0.00 0.00 73 1013.0
20260906173422 86 123 0.0 0.0 0.00 0.00 0.00 74 1013.2
20260906172921 85 105 0.0 0.0 0.00 0.00 0.00 74 1013.1
20260906172418 85 86 0.0 0.0 0.00 0.00 0.00 76 1013.2
20260906171913 84 104 0.0 0.0 0.00 0.00 0.00 76 1013.2
20260906171407 84 91 0.0 0.0 0.00 0.00 0.00 77 1013.3
20260906170903 84 171 0.0 0.0 0.00 0.00 0.00 76 1013.6
20260906170359 85 124 0.0 0.0 0.00 0.00 0.00 75 1013.8
20260906165856 84 129 0.0 0.0 0.00 0.00 0.00 75 1013.5
20260906165355 85 183 0.0 0.0 0.00 0.00 0.00 75 1013.6
20260906164850 84 141 0.0 0.0 0.00 0.00 0.00 76 1013.7
20260906164349 84 113 0.0 0.0 0.00 0.00 0.00 76 1013.8
20260906163845 84 77 0.0 0.0 0.00 0.00 0.00 78 1013.5
20260906163341 83 174 0.0 0.0 0.00 0.00 0.00 79 1013.8
20260906162838 83 73 0.0 0.0 0.00 0.00 0.00 81 1014.0
20260906162337 82 74 0.0 0.0 0.00 0.00 0.00 82 1013.8
20260906161832 82 78 0.0 0.0 0.00 0.00 0.00 82 1013.9
20260906161332 82 72 0.0 0.0 0.00 0.00 0.00 83 1014.0
20260906160831 81 72 0.0 0.0 0.00 0.00 0.00 83 1014.1
20260906160325 81 72 0.0 0.0 0.00 0.00 0.00 84 1013.9
20260906155823 81 88 0.0 0.0 0.00 0.00 0.00 84 1014.0
20260906155317 81 72 0.0 0.0 0.00 0.00 0.00 85 1014.2
20260906154813 80 72 0.0 0.0 0.00 0.00 0.00 84 1014.2
20260906154302 80 64 0.0 0.0 0.00 0.00 0.00 84 1014.1
20260906153800 80 60 0.0 0.0 0.00 0.00 0.00 85 1013.8
20260906153254 80 60 0.0 0.0 0.00 0.00 0.00 85 1014.2
20260906152750 80 60 0.0 0.0 0.00 0.00 0.00 85 1014.3
20260906152245 80 59 0.0 0.0 0.00 0.00 0.00 85 1014.3
20260906151744 79 60 0.0 0.0 0.00 0.00 0.00 85 1014.4
20260906151240 79 76 0.0 0.0 0.00 0.00 0.00 86 1014.2
20260906150736 79 72 0.0 0.0 0.00 0.00 0.00 86 1014.4
20260906150231 80 71 0.0 0.0 0.00 0.00 0.00 86 1014.0
20260906145730 80 74 0.0 0.0 0.00 0.00 0.00 85 1013.6
20260906145229 80 80 0.0 0.0 0.00 0.00 0.00 84 1013.6
20260906144725 80 176 0.0 0.0 0.00 0.00 0.00 84 1013.7
20260906144219 80 73 0.0 0.0 0.00 0.00 0.00 83 1013.5
20260906143718 80 103 0.0 0.0 0.00 0.00 0.00 83 1013.5
20260906143216 80 90 0.0 0.0 0.00 0.00 0.00 83 1013.2
20260906142715 80 80 0.0 0.0 0.00 0.00 0.00 84 1013.5
20260906142211 80 86 0.0 0.0 0.00 0.00 0.00 84 1013.3
20260906141709 80 82 0.0 0.0 0.00 0.00 0.00 84 1013.3
20260906141204 80 96 0.0 0.0 0.00 0.00 0.00 84 1013.5
20260906140703 80 78 0.0 0.0 0.00 0.00 0.00 84 1013.5
20260906140159 79 73 0.0 0.0 0.00 0.00 0.00 85 1013.4
20260906135655 79 91 0.0 0.0 0.00 0.00 0.00 85 1013.6
20260906135152 79 108 0.0 0.0 0.00 0.00 0.00 86 1013.4
20260906134647 78 71 0.0 0.0 0.00 0.00 0.00 86 1013.4
20260906134142 78 76 0.0 0.0 0.00 0.00 0.00 86 1013.6
20260906133637 78 108 0.0 0.0 0.00 0.00 0.00 86 1013.5
20260906133132 78 75 0.0 0.0 0.00 0.00 0.00 86 1013.8
20260906132627 78 74 0.0 0.0 0.00 0.00 0.00 85 1013.7
20260906132123 78 77 0.0 0.0 0.00 0.00 0.00 85 1013.5
20260906131618 78 73 0.0 0.0 0.00 0.00 0.00 86 1013.6
20260906131113 78 80 0.0 0.0 0.00 0.00 0.00 86 1013.3
20260906130608 77 66 0.0 0.0 0.00 0.00 0.00 87 1013.5
20260906130104 77 65 0.0 0.0 0.00 0.00 0.00 87 1013.4
20260906125601 77 65 0.0 0.0 0.00 0.00 0.00 87 1013.5
20260906125059 77 65 0.0 0.0 0.00 0.00 0.00 87 1013.4
20260906124550 77 65 0.0 0.0 0.00 0.00 0.00 87 1013.3
20260906124045 76 65 0.0 0.0 0.00 0.00 0.00 88 1013.2
20260906123544 76 66 0.0 0.0 0.00 0.00 0.00 88 1013.2
20260906123039 76 64 0.0 0.0 0.00 0.00 0.00 88 1013.3
20260906122538 76 64 0.0 0.0 0.00 0.00 0.00 88 1013.1
20260906122035 76 64 0.0 0.0 0.00 0.00 0.00 88 1012.9
20260906121531 76 64 0.0 0.0 0.00 0.00 0.00 88 1012.7
20260906121027 76 64 0.0 0.0 0.00 0.00 0.00 88 1012.8
20260906120522 76 65 0.0 0.0 0.00 0.00 0.00 88 1012.8
20260906120020 76 65 0.0 0.0 0.00 0.00 0.00 88 1012.7
20260906115519 76 66 0.0 0.0 0.00 0.00 0.00 88 1012.7
20260906115014 76 67 0.0 0.0 0.00 0.00 0.00 89 1012.7
20260906114508 75 64 0.0 0.0 0.00 0.00 0.00 89 1012.4
20260906114004 75 64 0.0 0.0 0.00 0.00 0.00 89 1012.6
20260906113503 75 64 0.0 0.0 0.00 0.00 0.00 90 1012.7
20260906112958 75 64 0.0 0.0 0.00 0.00 0.00 90 1012.6
20260906112453 75 64 0.0 0.0 0.00 0.00 0.00 91 1012.5
20260906111949 75 64 0.0 0.0 0.00 0.00 0.00 91 1012.6
20260906111449 74 64 0.0 0.0 0.00 0.00 0.00 91 1012.6
20260906110944 74 64 0.0 0.0 0.00 0.00 0.00 91 1012.4
20260906110439 74 64 0.0 0.0 0.00 0.00 0.00 91 1012.6
20260906105938 74 64 0.0 0.0 0.00 0.00 0.00 91 1012.6
20260906105434 73 64 0.0 0.0 0.00 0.00 0.00 91 1012.5
20260906104930 73 64 0.0 0.0 0.00 0.00 0.00 91 1012.5
20260906104428 73 64 0.0 0.0 0.00 0.00 0.00 91 1012.8
20260906103928 73 64 0.0 0.0 0.00 0.00 0.00 91 1012.5
20260906103426 73 64 0.0 0.0 0.00 0.00 0.00 91 1012.4
20260906102921 74 64 0.0 0.0 0.00 0.00 0.00 91 1012.5
20260906102421 74 64 0.0 0.0 0.00 0.00 0.00 91 1012.2
20260906101915 74 64 0.0 0.0 0.00 0.00 0.00 91 1012.2
20260906101411 74 64 0.0 0.0 0.00 0.00 0.00 91 1012.2
20260906100907 74 64 0.0 0.0 0.00 0.00 0.00 91 1012.3
20260906100406 74 64 0.0 0.0 0.00 0.00 0.00 91 1012.3
20260906095900 74 64 0.0 0.0 0.00 0.00 0.00 91 1012.4
20260906095356 73 64 0.0 0.0 0.00 0.00 0.00 90 1012.0
20260906094850 73 64 0.0 0.0 0.00 0.00 0.00 90 1012.1
20260906094345 73 64 0.0 0.0 0.00 0.00 0.00 90 1012.1
20260906093841 74 64 0.0 0.0 0.00 0.00 0.00 90 1012.3
20260906093337 74 64 0.0 0.0 0.00 0.00 0.00 90 1012.0
20260906092832 74 64 0.0 0.0 0.00 0.00 0.00 90 1012.5
20260906092331 74 64 0.0 0.0 0.00 0.00 0.00 90 1012.0
20260906091827 74 64 0.0 0.0 0.00 0.00 0.00 89 1012.3
20260906091323 74 64 0.0 0.0 0.00 0.00 0.00 89 1012.5
20260906090820 74 64 0.0 0.0 0.00 0.00 0.00 89 1012.2
20260906090318 75 64 0.0 0.0 0.00 0.00 0.00 89 1012.3
20260906085818 75 65 0.0 0.0 0.00 0.00 0.00 88 1012.1
20260906085311 75 65 0.0 0.0 0.00 0.00 0.00 88 1012.3
20260906084807 75 65 0.0 0.0 0.00 0.00 0.00 88 1012.3
20260906084306 76 65 0.0 0.0 0.00 0.00 0.00 88 1012.1
20260906083801 76 66 0.0 0.0 0.00 0.00 0.00 87 1012.2
20260906083257 76 65 0.0 0.0 0.00 0.00 0.00 87 1012.1
20260906082751 76 65 0.0 0.0 0.00 0.00 0.00 87 1012.0
20260906082246 76 65 0.0 0.0 0.00 0.00 0.00 87 1012.2
20260906081742 76 65 0.0 0.0 0.00 0.00 0.00 87 1012.2
20260906081238 77 65 0.0 0.0 0.00 0.00 0.00 86 1012.0
20260906080734 77 65 0.0 0.0 0.00 0.00 0.00 86 1012.2
20260906080230 77 65 0.0 0.0 0.00 0.00 0.00 86 1012.2
20260906075723 77 66 0.0 0.0 0.00 0.00 0.00 86 1012.0
20260906075218 77 65 0.0 0.0 0.00 0.00 0.00 87 1012.1
20260906074713 77 65 0.0 0.0 0.00 0.00 0.00 86 1011.8
20260906074213 77 67 0.0 0.0 0.00 0.00 0.00 86 1012.1
20260906073707 77 66 0.0 0.0 0.00 0.00 0.00 86 1011.6
20260906073203 77 67 0.0 0.0 0.00 0.00 0.00 86 1011.8
20260906072658 77 74 0.0 0.0 0.00 0.00 0.00 87 1012.2
20260906072154 76 64 0.0 0.0 0.00 0.00 0.00 88 1012.0
20260906071650 76 64 0.0 0.0 0.00 0.00 0.00 88 1012.0
20260906071149 77 64 0.0 0.0 0.00 0.00 0.00 87 1012.1
20260906070646 77 64 0.0 0.0 0.00 0.00 0.00 87 1012.1
20260906070141 77 64 0.0 0.0 0.00 0.00 0.00 87 1012.3
20260906065641 77 65 0.0 0.0 0.00 0.00 0.00 87 1012.1
20260906065136 77 65 0.0 0.0 0.00 0.00 0.00 87 1012.1
20260906064632 77 65 0.0 0.0 0.00 0.00 0.00 86 1012.3
20260906064127 78 65 0.0 0.0 0.00 0.00 0.00 86 1012.4
20260906063622 78 65 0.0 0.0 0.00 0.00 0.00 85 1012.3
20260906063118 78 65 0.0 0.0 0.00 0.00 0.00 85 1012.5
20260906062613 79 65 0.0 0.0 0.00 0.00 0.00 84 1012.6
20260906062112 79 67 0.0 0.0 0.00 0.00 0.00 84 1012.1
20260906061609 79 66 0.0 0.0 0.00 0.00 0.00 84 1012.3
20260906061108 79 122 0.0 0.0 0.00 0.00 0.00 84 1012.4
20260906060605 79 65 0.0 0.0 0.00 0.00 0.00 84 1012.3
20260906055557 80 66 0.0 0.0 0.00 0.00 0.00 82 1012.3
20260906055053 80 67 0.0 0.0 0.00 0.00 0.00 82 1012.4
20260906054552 80 65 0.0 0.0 0.00 0.00 0.00 82 1012.3
20260906054048 80 66 0.0 0.0 0.00 0.00 0.00 82 1012.3
20260906053544 80 92 0.0 0.0 0.00 0.00 0.00 82 1012.3
20260906053039 80 71 0.0 0.0 0.00 0.00 0.00 82 1012.2
20260906052535 81 72 0.0 0.0 0.00 0.00 0.00 82 1012.4
20260906052032 81 71 0.0 0.0 0.00 0.00 0.00 82 1012.4
20260906051527 81 52 0.0 0.0 0.00 0.00 0.00 82 1012.1
20260906051022 81 55 0.0 0.0 0.00 0.00 0.00 81 1012.2
20260906050518 81 64 0.0 0.0 0.00 0.00 0.00 81 1012.3
20260906050012 81 64 0.0 0.0 0.00 0.00 0.00 81 1012.2
20260906045510 82 64 0.0 0.0 0.00 0.00 0.00 81 1012.2
20260906045006 82 60 0.0 0.0 0.00 0.00 0.00 81 1012.1
20260906044502 82 69 0.0 0.0 0.00 0.00 0.00 81 1012.2
20260906043957 82 65 0.0 0.0 0.00 0.00 0.00 81 1012.2
20260906043453 82 64 0.0 0.0 0.00 0.00 0.00 80 1012.2
20260906042949 82 65 0.0 0.0 0.00 0.00 0.00 80 1012.2
20260906042448 82 45 0.0 0.0 0.00 0.00 0.00 81 1012.3
20260906041948 82 50 0.0 0.0 0.00 0.00 0.00 81 1012.5
20260906041444 82 57 0.0 0.0 0.00 0.00 0.00 81 1012.5
20260906040943 82 54 0.0 0.0 0.00 0.00 0.00 80 1012.3
20260906040438 82 56 0.0 0.0 0.00 0.00 0.00 80 1012.3
20260906035934 83 56 0.0 0.0 0.00 0.00 0.00 80 1012.3
20260906035429 83 48 0.0 0.0 0.00 0.00 0.00 79 1012.4
20260906034924 83 49 0.0 0.0 0.00 0.00 0.00 79 1012.4
20260906034419 83 48 0.0 0.0 0.00 0.00 0.00 80 1012.2
20260906033915 83 44 0.0 0.0 0.00 0.00 0.00 79 1012.2
20260906033415 83 43 0.0 0.0 0.00 0.00 0.00 80 1012.1
20260906032910 83 35 0.0 0.0 0.00 0.00 0.00 80 1011.8
20260906032407 83 36 0.0 0.0 0.00 0.00 0.00 80 1012.1
20260906031901 83 35 0.0 0.0 0.00 0.00 0.00 80 1012.2
20260906031356 83 38 0.0 0.0 0.00 0.00 0.00 80 1012.0
20260906030851 83 38 0.0 0.0 0.00 0.00 0.00 80 1012.0
20260906030346 83 39 0.0 0.0 0.00 0.00 0.00 79 1011.8
20260906025841 83 38 0.0 0.0 0.00 0.00 0.00 80 1011.7
20260906025335 83 38 0.0 0.0 0.00 0.00 0.00 80 1011.4
20260906024834 84 38 0.0 0.0 0.00 0.00 0.00 79 1011.6
20260906024333 84 38 0.0 0.0 0.00 0.00 0.00 79 1011.3
20260906023829 84 38 0.0 0.0 0.00 0.00 0.00 79 1011.4
20260906023325 84 38 0.0 0.0 0.00 0.00 0.00 79 1011.2
20260906022820 84 38 0.0 0.0 0.00 0.00 0.00 78 1010.9
20260906022315 84 38 0.0 0.0 0.00 0.00 0.00 78 1011.1
20260906021810 84 38 0.0 0.0 0.00 0.00 0.00 78 1011.2
20260906021309 84 35 0.0 0.0 0.00 0.00 0.00 78 1011.1
20260906020804 85 35 0.0 0.0 0.00 0.00 0.00 78 1011.0
20260906020258 85 35 0.0 0.0 0.00 0.00 0.00 77 1010.8
20260906015759 85 33 0.0 0.0 0.00 0.00 0.00 77 1010.6
20260906015257 85 41 0.0 0.0 0.00 0.00 0.00 78 1010.7
20260906014752 85 41 0.0 0.0 0.00 0.00 0.00 78 1010.6
20260906014247 86 43 0.0 0.0 0.00 0.00 0.00 77 1010.5
20260906013743 85 44 0.0 0.0 0.00 0.00 0.00 77 1010.6
20260906013243 86 45 0.0 0.0 0.00 0.00 0.00 77 1010.5
20260906012739 86 47 0.0 0.0 0.00 0.00 0.00 76 1010.4
20260906012233 86 45 0.0 0.0 0.00 0.00 0.00 76 1010.2
20260906011729 86 49 0.0 0.0 0.00 0.00 0.00 76 1010.1
20260906011223 86 45 0.0 0.0 0.00 0.00 0.00 75 1010.4
20260906010719 87 39 0.0 0.0 0.00 0.00 0.00 75 1010.2
20260906010215 87 35 0.0 0.0 0.00 0.00 0.00 75 1010.2
20260906005714 87 35 0.0 0.0 0.00 0.00 0.00 74 1010.1
20260906005209 88 35 0.0 0.0 0.00 0.00 0.00 74 1010.2
20260906004708 88 35 0.0 0.0 0.00 0.00 0.00 73 1010.0
20260906004203 88 56 1.0 1.0 0.00 0.00 0.00 73 1010.2
20260906003658 88 66 0.0 1.0 0.00 0.00 0.00 72 1010.1
20260906003154 88 66 0.0 0.0 0.00 0.00 0.00 71 1010.0
20260906002654 89 68 0.0 0.0 0.00 0.00 0.00 71 1010.0
20260906002148 89 97 1.0 2.0 0.00 0.00 0.00 70 1009.7
20260906001644 89 66 0.0 1.0 0.00 0.00 0.00 70 1009.9
20260906001143 89 68 0.0 0.0 0.00 0.00 0.00 69 1009.9
20260906000639 90 68 0.0 1.0 0.00 0.00 0.00 68 1010.0
20260906000135 90 75 0.0 0.0 0.00 0.00 0.00 68 1009.8
20260905235633 90 68 0.0 0.0 0.00 0.00 0.00 68 1010.1
20260905235129 90 76 2.0 3.0 0.00 0.00 0.00 68 1010.1
20260905234624 90 91 2.0 3.0 0.00 0.00 0.00 68 1010.1
20260905234119 91 70 0.0 1.0 0.00 0.00 0.00 67 1010.2
20260905233614 90 98 1.0 2.0 0.00 0.00 0.00 68 1010.0
20260905233108 90 66 1.0 1.0 0.00 0.00 0.00 69 1009.9
20260905232604 91 67 0.0 0.0 0.00 0.00 0.00 68 1010.1
20260905232100 90 64 1.0 2.0 0.00 0.00 0.00 68 1010.0
20260905231554 91 61 0.0 1.0 0.00 0.00 0.00 68 1009.9
20260905231051 91 62 0.0 1.0 0.00 0.00 0.00 67 1009.7
20260905230550 91 75 0.0 1.0 0.00 0.00 0.00 67 1009.8
20260905230048 91 70 0.0 1.0 0.00 0.00 0.00 66 1010.0
20260905225543 91 131 1.0 1.0 0.00 0.00 0.00 66 1010.0
20260905225038 91 83 1.0 2.0 0.00 0.00 0.00 64 1009.7
20260905224532 91 85 2.0 2.0 0.00 0.00 0.00 64 1010.0
20260905224032 91 83 0.0 1.0 0.00 0.00 0.00 65 1010.0
20260905223530 91 189 3.0 3.0 0.00 0.00 0.00 64 1009.8
20260905223025 91 82 1.0 1.0 0.00 0.00 0.00 64 1009.7
20260905222525 91 72 1.0 1.0 0.00 0.00 0.00 64 1009.9
20260905222020 91 104 3.0 3.0 0.00 0.00 0.00 64 1009.7
20260905221517 91 102 3.0 3.0 0.00 0.00 0.00 63 1009.6
20260905221012 91 61 1.0 1.0 0.00 0.00 0.00 63 1009.8
20260905220508 91 121 2.0 2.0 0.00 0.00 0.00 63 1009.8
20260905220004 91 127 3.0 5.0 0.00 0.00 0.00 63 1009.6
20260905215458 91 98 1.0 2.0 0.00 0.00 0.00 63 1009.8
20260905214954 91 100 5.0 10.0 0.00 0.00 0.00 62 1010.0
20260905214450 91 125 2.0 3.0 0.00 0.00 0.00 62 1009.9
20260905213950 90 128 4.0 5.0 0.00 0.00 0.00 62 1009.8
20260905213446 91 81 1.0 2.0 0.00 0.00 0.00 61 1009.9
20260905212941 90 159 1.0 2.0 0.00 0.00 0.00 61 1010.3
20260905212436 90 77 0.0 1.0 0.00 0.00 0.00 60 1010.2
20260905211935 91 120 3.0 3.0 0.00 0.00 0.00 60 1010.2
20260905211431 91 66 0.0 0.0 0.00 0.00 0.00 61 1010.4
20260905210927 91 96 2.0 2.0 0.00 0.00 0.00 61 1010.5
20260905210426 91 70 3.0 3.0 0.00 0.00 0.00 59 1010.3
20260905205926 91 73 1.0 1.0 0.00 0.00 0.00 59 1010.5
20260905205421 92 98 2.0 3.0 0.00 0.00 0.00 59 1010.7
20260905204920 92 51 1.0 2.0 0.00 0.00 0.00 59 1010.7
20260905204417 92 76 1.0 2.0 0.00 0.00 0.00 60 1010.7
20260905203915 91 27 0.0 1.0 0.00 0.00 0.00 61 1010.9
20260905203411 91 36 0.0 1.0 0.00 0.00 0.00 61 1010.9
20260905202906 91 68 0.0 1.0 0.00 0.00 0.00 60 1011.1
20260905202401 91 46 1.0 1.0 0.00 0.00 0.00 61 1011.3
20260905201856 91 60 2.0 3.0 0.00 0.00 0.00 59 1011.4
20260905201352 91 58 0.0 1.0 0.00 0.00 0.00 64 1011.6
20260905200846 90 74 1.0 1.0 0.00 0.00 0.00 63 1011.8
20260905200342 91 93 2.0 3.0 0.00 0.00 0.00 62 1011.8
20260905195840 91 68 0.0 1.0 0.00 0.00 0.00 61 1012.0
20260905195335 92 339 4.0 6.0 0.00 0.00 0.00 60 1011.8
20260905194830 91 60 0.0 0.0 0.00 0.00 0.00 63 1012.3
20260905194325 90 141 0.0 1.0 0.00 0.00 0.00 63 1012.2
20260905193824 91 77 2.0 3.0 0.00 0.00 0.00 63 1012.1
20260905193319 91 59 0.0 1.0 0.00 0.00 0.00 62 1012.3
20260905192815 91 69 1.0 1.0 0.00 0.00 0.00 63 1012.3
20260905192311 91 348 2.0 3.0 0.00 0.00 0.00 64 1012.1
20260905191810 90 98 2.0 2.0 0.00 0.00 0.00 63 1012.3
20260905191308 90 83 3.0 3.0 0.00 0.00 0.00 65 1012.4
20260905190807 90 69 3.0 8.0 0.00 0.00 0.00 64 1012.6
20260905190306 90 77 1.0 1.0 0.00 0.00 0.00 64 1012.6
20260905185800 90 49 4.0 7.0 0.00 0.00 0.00 64 1012.9
20260905185254 90 57 1.0 1.0 0.00 0.00 0.00 66 1012.9
20260905184748 90 39 2.0 2.0 0.00 0.00 0.00 65 1013.1
20260905184248 90 26 4.0 5.0 0.00 0.00 0.00 64 1013.2
20260905183747 89 348 2.0 2.0 0.00 0.00 0.00 65 1013.3
20260905183242 89 70 1.0 2.0 0.00 0.00 0.00 65 1013.5